Regional Weather Roundup
Issued by NWS Glasgow, MT

Home | Current Version | Previous Version | Text Only | Print | Product List | Glossary On
Versions: 1 2 3 4 5 6 7 8 9 10 11 12 13 14 15 16 17 18 19 20 21 22 23 24 25 26 27 28 29 30 31 32 33 34 35 36 37 38 39 40 41 42 43 44 45 46 47 48 49 50
000
ASUS45 KGGW 282115
RWRGGW
HOURLY WEATHER ROUNDUP FOR NORTHEAST MONTANA
NATIONAL WEATHER SERVICE GLASGOW MONTANA
200 PM MST SUN DEC 28 2014

NOTE: "FAIR" INDICATES FEW OR NO CLOUDS BELOW 12,000 FEET WITH NO
SIGNIFICANT WEATHER AND/OR OBSTRUCTIONS TO VISISBILITY.

NORTHEAST MONTANA


CITY           SKY/WX    TMP DP  RH WIND       PRES   REMARKS
GLASGOW        LGT SNOW  14   7  73 NE17      30.15R WCI  -3
PLENTYWOOD       N/A      7   1  76 NE15        N/A  WCI -10
WOLF POINT     CLOUDY    14   5  67 NE20      30.19R WCI  -3
JORDAN           N/A     18  15  88 NE15      30.07R
WINNETT          N/A     20  18  92 NE15        N/A
SIDNEY         CLOUDY    12   7  79 N14       30.18R WCI  -3
GLENDIVE       CLOUDY    18  12  79 NE15      30.07R
MALTA            N/A     18  14  84 NE9G17      N/A

FORT PECK REPORTS


CITY           SKY/WX    TMP DP  RH WIND       PRES   REMARKS
FORT PECK        N/A     14  11  87 N13         N/A  WCI   0
THE PINES        N/A     18  16  92 NE14        N/A

SOUTHEAST MONTANA


CITY           SKY/WX    TMP DP  RH WIND       PRES   REMARKS
BILLINGS       LGT SNOW  26  22  84 NE12      29.95R FOG
MILES CITY     LGT SNOW  23  20  88 NE16      29.99R VSB 1
BAKER          LGT SNOW  23  18  81 E12       30.00R
LIVINGSTON     LGT SNOW  21  16  81 NW21      29.92R VSB 1

CENTRAL MONTANA


CITY           SKY/WX    TMP DP  RH WIND       PRES   REMARKS
HAVRE          CLOUDY    20  15  81 NE8       30.18R
LEWISTOWN      SNOW      19  14  81 NW12G18   30.01R VSB 1/2
GREAT FALLS    HVY SNOW  14  11  87 NW13      30.14R VSB 1/4 WCI   0
CUT BANK       LGT SNOW  12   8  84 N24       30.17R VSB 1   WCI  -8
HELENA         CLOUDY    19   9  65 N12       30.09R
BUTTE          CLOUDY    24  17  74 N12       29.89R
BOZEMAN        FLURRIES  25  20  81 W9        29.93S

WESTERN MONTANA


CITY           SKY/WX    TMP DP  RH WIND       PRES   REMARKS
MISSOULA       SNOW      28  26  92 SE10      30.01R VSB 1/4
KALISPELL      NOT AVBL

NORTH DAKOTA


CITY           SKY/WX    TMP DP  RH WIND       PRES   REMARKS
WILLISTON      CLOUDY    11   1  64 NE13      30.21R WCI  -4
DICKINSON      LGT SNOW  16  11  80 NE13      30.06R
MINOT          CLOUDY     2  -4  76 N8        30.27R
BISMARCK       FLURRIES   9   4  80 E13       30.21R WCI  -7

SOUTHERN SASKATCHEWAN


CITY           SKY/WX    TMP DP  RH WIND       PRES   REMARKS
REGINA         PTSUNNY   -6 -11  77 NW10      30.34  WCI -23
ESTEVAN        CLOUDY    -2 -11  65 N6        30.29R
SWIFT CURRENT  CLOUDY     0  -4  85 NE10      30.26R WCI -17




USA.gov is the U.S. government's official web portal to all federal, state and local government web resources and services.